Miscellaneous Local Product
Issued by NWS Hastings, NE

Home | Current Version | Previous Version | Graphics & Text | Print | Product List | Glossary On
Versions: 1 2 3 4 5 6 7 8 9 10 11 12 13 14 15 16 17 18 19 20 21 22 23 24 25 26 27 28 29 30 31 32 33 34 35 36 37 38 39 40 41 42 43 44 45 46 47 48 49 50
000
AXUS43 KGID 240202
MISGRI

GID CWA HOURLY WEATHER ROUNDUP
NATIONAL WEATHER SERVICE HASTINGS NE
900 PM CDT SAT JUL 23 2016

NOTE: "FAIR" INDICATES FEW OR NO CLOUDS BELOW 12,000 FEET WITH NO
SIGNIFICANT WEATHER AND/OR OBSTRUCTIONS TO VISIBILITY.

...SOUTH CENTRAL NEBRASKA...

CITY           SKY/WX    TMP DP  RH WIND       PRES   REMARKS
GRAND ISLAND   CLEAR     87  74  64 CALM      29.82R HX  95
HASTINGS       CLEAR     85  76  74 NE5       29.83R HX  94
KEARNEY        CLEAR     84  73  70 NE3       29.84S HX  91
ORD            CLEAR     83  75  77 N5        29.81R HX  90
YORK           CLEAR     86  77  74 CALM      29.81R HX  97
AURORA         CLEAR     86  81  86 CALM      29.81R HX 103
LEXINGTON      CLEAR     84  78  81 CALM      29.86R HX  94
HOLDREGE       CLEAR     82  75  78 CALM      29.85R
HEBRON         CLEAR     85  69  59 SE6       29.79R

...NEBRASKA PANHANDLE...

CITY           SKY/WX    TMP DP  RH WIND       PRES   REMARKS
CHADRON        CLEAR     83  46  27 NE12      29.96R
ALLIANCE       MOCLDY    79  58  48 E9        29.98R
SCOTTSBLUFF    PTCLDY    81  54  39 NE6       29.98R
SIDNEY         PTCLDY    75  56  51 SE8       30.02F

...WESTERN AND NORTH CENTRAL NEBRASKA...

CITY           SKY/WX    TMP DP  RH WIND       PRES   REMARKS
VALENTINE      CLEAR     84  51  31 N10       29.91R
AINSWORTH      CLEAR     80  58  46 N9        29.91R
ONEILL         CLEAR     85  66  54 NW9       29.82R
BROKEN BOW     CLEAR     80  72  76 N5        29.87R
IMPERIAL       PTCLDY    85  68  56 N7        29.95R
NORTH PLATTE   CLEAR     80  67  64 N6        29.90R
MCCOOK         CLEAR     85  70  60 NE5       29.87R

...EASTERN NEBRASKA...

CITY           SKY/WX    TMP DP  RH WIND       PRES   REMARKS
NORFOLK        CLEAR     84  75  74 S7        29.78R HX  92
SO SIOUX CITY  CLOUDY    86  77  74 S8        29.75R HX  97
TEKAMAH        CLOUDY    84  78  82 S5        29.76S HX  95
COLUMBUS       CLEAR     86  72  62 SW6       29.79R HX  92
ALBION         CLEAR     83  75  77 CALM      29.80S HX  90
OMAHA EPPLEY   PTCLDY    87  76  69 S14       29.77R HX  97
OFFUTT AFB     CLEAR     84  78  80 SE7       29.77S HX  95
MILLARD        CLEAR     86  78  77 SE3       29.77S HX  97
LINCOLN        CLOUDY    88  73  61 S9        29.78R HX  95
NEBRASKA CITY  CLEAR     81  77  86 S8        29.80R
BEATRICE       CLEAR     88  70  55 S12       29.78S HX  93
FALLS CITY     CLOUDY    86  74  67 S10       29.79S HX  94

...NORTHERN KANSAS...

CITY           SKY/WX    TMP DP  RH WIND       PRES   REMARKS
GOODLAND       CLOUDY    83  58  42 E6        29.92S
HILL CITY      PTCLDY    91  65  41 NE8       29.82R HX  93
NORTON         CLEAR     88  66  48 N6        29.83S HX  90
SMITH CENTER   CLEAR     90  57  33 S12       29.79R
BELOIT         CLEAR     90  66  45 SE9       29.76R HX  92
HAYS           CLEAR     90  57  33 S9        29.80R
RUSSELL        CLEAR     91  60  35 S12       29.79R HX  90
CONCORDIA      CLEAR     89  68  49 S16       29.79R HX  93
SALINA         CLEAR     92  70  48 SE10      29.80R HX  97
TOPEKA           N/A     87  72  60 S8        29.83R HX  93



USA.gov is the U.S. government's official web portal to all federal, state and local government web resources and services.